Home   Weather   West Fairfield   Past weeks
Flag for USA

Past Weather in West Fairfield, Alabama, USA — Yesterday and Last 2 Weeks

Now
51 °F

Passing clouds.


Feels Like: 49 °F
Forecast: 53 / 41 °F
Wind: 7 mph from Southwest

Location: Birmingham International Airport

Current Time: Dec 14, 2019 at 1:06:10 pm

Latest Report: Dec 14, 2019 at 11:53 am


Visibility: 10 mi

Pressure: 29.86 "Hg

Humidity: 69%

Dew Point: 41 °F

Location of West FairfieldLocation

Past Weather in West Fairfield — Graph

°F

West Fairfield Temperature Yesterday

Maximum temperature yesterday: 48 °F (at 1:53 pm)
Minimum temperature yesterday: 43 °F (at 3:53 am)
Average temperature yesterday: 46 °F

High & Low Weather Summary for the Past Weeks

 TemperatureHumidityPressure
High74 °F (Nov 30, 11:53 am)97% (Dec 13, 2:53 pm)30.55 "Hg (Dec 13, 2:53 pm)
Low30 °F (Dec 11, 6:53 am)23% (Dec 5, 2:53 pm)29.66 "Hg (Nov 30, 11:53 pm)
Average52 °F68%30.09 "Hg
* Reported Nov 29 10:09 am — Dec 14 10:53 am, West Fairfield. Weather by CustomWeather, © 2019

Note: Actual official high and low records may vary slightly from our data, if they occured in-between our weather recording intervals... More about our weather records

West Fairfield Weather History for the Previous 24 Hours

Scroll right to see more
 ConditionsComfort  
Time TempWeatherWind HumidityBarometerVisibility
10:53 am
Sat, Dec 14
49 °FPassing clouds.8 mph71%29.87 "Hg10 mi
9:53 am46 °FOvercast.10 mph79%29.88 "Hg10 mi
8:53 am44 °FOvercast.8 mph82%29.87 "Hg10 mi
7:53 am44 °FOvercast.9 mph82%29.87 "Hg10 mi
7:05 am44 °FOvercast.8 mph85%29.85 "Hg10 mi
5:53 am44 °FLow clouds.9 mph89%29.83 "Hg10 mi
5:14 am45 °FLow clouds.7 mph90%29.81 "Hg10 mi
4:53 am45 °FMostly cloudy.7 mph90%29.79 "Hg10 mi
4:36 am46 °FMostly cloudy.7 mph86%29.79 "Hg10 mi
4:06 am46 °FOvercast.8 mph89%29.79 "Hg10 mi
3:53 am46 °FMostly cloudy.9 mph89%29.79 "Hg10 mi
2:53 am47 °FOvercast.7 mph86%29.80 "Hg10 mi
1:53 am48 °FLow clouds.7 mph89%29.80 "Hg10 mi
12:53 am48 °FMostly cloudy.9 mph89%29.79 "Hg10 mi
11:53 pm
Fri, Dec 13
48 °FMostly cloudy.6 mph93%29.78 "Hg10 mi
11:32 pm48 °FMostly cloudy.7 mph93%29.79 "Hg10 mi
10:53 pm48 °FLow clouds.6 mph96%29.80 "Hg8 mi
9:53 pm48 °FFog.No wind93%29.82 "Hg4 mi
8:53 pm48 °FFog.No wind93%29.85 "Hg3 mi
7:53 pm47 °FLow clouds.No wind93%29.84 "Hg10 mi
7:21 pm47 °FMostly cloudy.No wind93%29.82 "Hg10 mi
6:53 pm47 °FMostly cloudy.No wind93%29.82 "Hg7 mi
5:53 pm48 °FMostly cloudy.No wind89%29.85 "Hg7 mi
5:29 pm47 °FLight rain. Fog.7 mph90%29.82 "Hg6 mi
4:53 pm48 °FFog.5 mph86%29.85 "Hg6 mi
4:22 pm47 °FLight rain. Fog.5 mph93%29.85 "Hg8 mi
3:53 pm48 °FDrizzle. Fog.No wind89%29.89 "Hg3 mi
2:53 pm47 °FDrizzle. Fog.No wind97%29.90 "Hg1 mi
2:31 pm48 °FFog.5 mph89%29.89 "Hg1 mi
2:11 pm48 °FFog.No wind89%29.91 "Hg2 mi
1:53 pm48 °FFog.3 mph89%29.90 "Hg5 mi
Weather by CustomWeather, © 2019

See weather overview

Advertising